When you browse on this site, cookies collect data to enhance your experience and personalize the content and advertising you see.
Visit our Privacy Policy to learn more. By continuing to use the site, you agree to this use of cookies and data.

Hourly Weather Luksor

Today, 21 September, Monday

Time Temperature Precipitation Wind Pressure Humidity
00:00 +34°C° 0 mm 3 mps 747 mmHg 30%
01:00 +33°C° 0 mm 3 mps 746 mmHg 33%
02:00 +33°C° 0 mm 3 mps 746 mmHg 35%
03:00 +31°C° 0 mm 2 mps 746 mmHg 38%
04:00 +30°C° 0 mm 2 mps 747 mmHg 40%
05:00 +29°C° 0 mm 2 mps 747 mmHg 42%
06:00 +31°C° 0 mm 2 mps 747 mmHg 39%
07:00 +34°C° 0 mm 2 mps 747 mmHg 36%
08:00 +35°C° 0 mm 2 mps 748 mmHg 32%
09:00 +37°C° 0 mm 2 mps 748 mmHg 28%
10:00 +40°C° 0 mm 1 mps 748 mmHg 23%
11:00 +42°C° 0 mm 1 mps 748 mmHg 18%
12:00 +43°C° 0 mm 2 mps 747 mmHg 16%
13:00 +45°C° 0 mm 2 mps 747 mmHg 14%
14:00 +47°C° 0 mm 3 mps 746 mmHg 12%
15:00 +47°C° 0 mm 4 mps 746 mmHg 12%
16:00 +47°C° 0 mm 5 mps 746 mmHg 12%
17:00 +46°C° 0 mm 6 mps 746 mmHg 12%
18:00 +44°C° 0 mm 6 mps 747 mmHg 13%
19:00 +41°C° 0 mm 6 mps 747 mmHg 14%
20:00 +39°C° 0 mm 7 mps 748 mmHg 15%
21:00 +37°C° 0 mm 5 mps 748 mmHg 17%
22:00 +36°C° 0 mm 4 mps 748 mmHg 18%
23:00 +34°C° 0 mm 3 mps 748 mmHg 20%

Tomorrow, 22 September, Tuesday

Time Temperature Precipitation Wind Pressure Humidity
00:00 +34°C° 0 mm 3 mps 748 mmHg 21%
01:00 +33°C° 0 mm 3 mps 748 mmHg 23%
02:00 +31°C° 0 mm 3 mps 747 mmHg 25%
03:00 +30°C° 0 mm 2 mps 748 mmHg 26%
04:00 +30°C° 0 mm 2 mps 748 mmHg 28%
05:00 +29°C° 0 mm 2 mps 748 mmHg 29%
06:00 +31°C° 0 mm 2 mps 749 mmHg 27%
07:00 +32°C° 0 mm 2 mps 749 mmHg 25%
08:00 +35°C° 0 mm 2 mps 749 mmHg 23%
09:00 +37°C° 0 mm 3 mps 749 mmHg 21%
10:00 +40°C° 0 mm 3 mps 749 mmHg 18%
11:00 +43°C° 0 mm 3 mps 749 mmHg 16%
12:00 +44°C° 0 mm 3 mps 749 mmHg 14%
13:00 +45°C° 0 mm 3 mps 748 mmHg 13%
14:00 +47°C° 0 mm 3 mps 747 mmHg 11%
15:00 +47°C° 0 mm 4 mps 747 mmHg 11%
16:00 +47°C° 0 mm 5 mps 747 mmHg 12%
17:00 +46°C° 0 mm 6 mps 747 mmHg 12%
18:00 +44°C° 0 mm 6 mps 747 mmHg 14%
19:00 +41°C° 0 mm 6 mps 748 mmHg 16%
20:00 +39°C° 0 mm 6 mps 749 mmHg 18%
21:00 +37°C° 0 mm 5 mps 749 mmHg 19%
22:00 +36°C° 0 mm 4 mps 749 mmHg 20%
23:00 +35°C° 0 mm 3 mps 749 mmHg 22%

Day after tomorrow, 23 September, Wednesday

Time Temperature Precipitation Wind Pressure Humidity
00:00 +34°C° 0 mm 3 mps 749 mmHg 23%
01:00 +33°C° 0 mm 3 mps 748 mmHg 25%
02:00 +31°C° 0 mm 3 mps 748 mmHg 26%
03:00 +31°C° 0 mm 3 mps 748 mmHg 29%
04:00 +30°C° 0 mm 3 mps 749 mmHg 31%
05:00 +29°C° 0 mm 2 mps 749 mmHg 33%
06:00 +31°C° 0 mm 3 mps 749 mmHg 33%
07:00 +33°C° 0 mm 3 mps 749 mmHg 32%
08:00 +34°C° 0 mm 4 mps 750 mmHg 32%
09:00 +37°C° 0 mm 5 mps 750 mmHg 27%
10:00 +40°C° 0 mm 5 mps 750 mmHg 23%
11:00 +44°C° 0 mm 6 mps 749 mmHg 18%
12:00 +45°C° 0 mm 6 mps 749 mmHg 17%
13:00 +46°C° 0 mm 6 mps 748 mmHg 15%
14:00 +47°C° 0 mm 6 mps 747 mmHg 14%
15:00 +46°C° 0 mm 7 mps 747 mmHg 15%
16:00 +45°C° 0 mm 7 mps 747 mmHg 16%
17:00 +44°C° 0 mm 8 mps 747 mmHg 16%
18:00 +41°C° 0 mm 7 mps 748 mmHg 19%
19:00 +40°C° 0 mm 7 mps 748 mmHg 22%
20:00 +38°C° 0 mm 7 mps 749 mmHg 25%
21:00 +36°C° 0 mm 6 mps 749 mmHg 27%
22:00 +35°C° 0 mm 6 mps 749 mmHg 29%
23:00 +34°C° 0 mm 6 mps 749 mmHg 32%

24 September, Thursday

Time Temperature Precipitation Wind Pressure Humidity
00:00 +33°C° 0 mm 5 mps 749 mmHg 34%
01:00 +32°C° 0 mm 5 mps 748 mmHg 37%
02:00 +30°C° 0 mm 4 mps 748 mmHg 39%
03:00 +29°C° 0 mm 4 mps 749 mmHg 43%
04:00 +28°C° 0 mm 4 mps 749 mmHg 46%
05:00 +27°C° 0 mm 3 mps 749 mmHg 49%
06:00 +29°C° 0 mm 4 mps 749 mmHg 47%
07:00 +30°C° 0 mm 4 mps 750 mmHg 45%
08:00 +32°C° 0 mm 5 mps 750 mmHg 43%
09:00 +35°C° 0 mm 5 mps 750 mmHg 36%
10:00 +38°C° 0 mm 6 mps 750 mmHg 29%
11:00 +41°C° 0 mm 6 mps 749 mmHg 22%
12:00 +42°C° 0 mm 6 mps 749 mmHg 20%
13:00 +44°C° 0 mm 6 mps 748 mmHg 17%
14:00 +45°C° 0 mm 6 mps 748 mmHg 14%
15:00 +44°C° 0 mm 7 mps 748 mmHg 14%
16:00 +43°C° 0 mm 7 mps 747 mmHg 15%
17:00 +41°C° 0 mm 7 mps 747 mmHg 15%
18:00 +39°C° 0 mm 6 mps 748 mmHg 17%
19:00 +36°C° 0 mm 6 mps 748 mmHg 18%
20:00 +34°C° 0 mm 6 mps 749 mmHg 20%
21:00 +33°C° 0 mm 5 mps 749 mmHg 22%
22:00 +32°C° 0 mm 4 mps 749 mmHg 24%
23:00 +30°C° 0 mm 4 mps 749 mmHg 27%

25 September, Friday

Time Temperature Precipitation Wind Pressure Humidity
00:00 +29°C° 0 mm 4 mps 749 mmHg 29%
01:00 +28°C° 0 mm 3 mps 748 mmHg 31%
02:00 +28°C° 0 mm 3 mps 748 mmHg 33%
03:00 +27°C° 0 mm 3 mps 748 mmHg 36%
04:00 +26°C° 0 mm 3 mps 748 mmHg 39%
05:00 +26°C° 0 mm 3 mps 748 mmHg 42%
06:00 +27°C° 0 mm 4 mps 749 mmHg 38%
07:00 +29°C° 0 mm 5 mps 749 mmHg 34%
08:00 +32°C° 0 mm 5 mps 749 mmHg 30%
09:00 +35°C° 0 mm 6 mps 749 mmHg 24%
10:00 +38°C° 0 mm 6 mps 749 mmHg 19%
11:00 +41°C° 0 mm 6 mps 749 mmHg 14%
12:00 +42°C° 0 mm 6 mps 748 mmHg 12%
13:00 +44°C° 0 mm 7 mps 747 mmHg 10%
14:00 +46°C° 0 mm 7 mps 747 mmHg 9%
15:00 +44°C° 0 mm 7 mps 747 mmHg 10%
16:00 +43°C° 0 mm 7 mps 747 mmHg 12%
17:00 +41°C° 0 mm 7 mps 747 mmHg 14%
18:00 +39°C° 0 mm 7 mps 747 mmHg 18%
19:00 +36°C° 0 mm 6 mps 747 mmHg 21%
20:00 +34°C° 0 mm 6 mps 748 mmHg 25%
21:00 +33°C° 0 mm 5 mps 748 mmHg 27%
22:00 +32°C° 0 mm 4 mps 748 mmHg 29%
23:00 +30°C° 0 mm 3 mps 748 mmHg 31%

26 September, Saturday

Time Temperature Precipitation Wind Pressure Humidity
00:00 +29°C° 0 mm 3 mps 748 mmHg 33%
01:00 +28°C° 0 mm 2 mps 748 mmHg 35%
02:00 +27°C° 0 mm 2 mps 747 mmHg 36%
03:00 +27°C° 0 mm 2 mps 747 mmHg 37%
04:00 +27°C° 0 mm 2 mps 748 mmHg 39%
05:00 +26°C° 0 mm 3 mps 748 mmHg 40%
06:00 +28°C° 0 mm 3 mps 748 mmHg 37%
07:00 +30°C° 0 mm 3 mps 748 mmHg 34%
08:00 +31°C° 0 mm 3 mps 748 mmHg 31%
09:00 +34°C° 0 mm 4 mps 748 mmHg 27%
10:00 +36°C° 0 mm 4 mps 748 mmHg 23%
11:00 +39°C° 0 mm 5 mps 748 mmHg 19%
12:00 +40°C° 0 mm 5 mps 747 mmHg 17%
13:00 +41°C° 0 mm 5 mps 746 mmHg 15%
14:00 +43°C° 0 mm 5 mps 746 mmHg 13%
15:00 +42°C° 0 mm 5 mps 746 mmHg 13%
16:00 +41°C° 0 mm 5 mps 746 mmHg 14%
17:00 +40°C° 0 mm 5 mps 746 mmHg 15%
18:00 +37°C° 0 mm 5 mps 746 mmHg 17%
19:00 +35°C° 0 mm 5 mps 747 mmHg 20%
20:00 +33°C° 0 mm 4 mps 747 mmHg 22%
21:00 +32°C° 0 mm 4 mps 747 mmHg 24%
22:00 +30°C° 0 mm 3 mps 748 mmHg 26%
23:00 +29°C° 0 mm 2 mps 748 mmHg 28%
Show more